星链-30999 (STARLINK-30999 )

导读

STARLINK-30999是美国太空探索技术公司(SpaceX)旗下星链(Starlink)星座的卫星,属于星链第二代小型卫星(Starlink V2.0 Mini),于2023年12月8日由猎鹰九号火箭发射升空。 作为低轨通信卫星,它旨在为全球提供高速低延迟宽带互联网服务,尤其覆盖基础设施匮乏的偏远区域,单星发射质量约790千克,服役后将进一步扩充星链星座的全球服务能力。

基本信息
目录编号:
58551
目录名称:
STARLINK-30999
国际标识:
2023-192W
轨道中心:
EARTH
卫星名称:
星链-30999
卫星全名:
星链-30999 (STARLINK-30999 )
卫星状态:
在轨 (已飞行923 天)
发射日期:
2023-12-08 UTC
国别 :
美国 (US)
星等 :
--
轨道信息
数据来源 国际轨道数据
星历时间: 2026-06-17T22:50:54+0800
17小时前
查看轨道信息
半长轴: 6853.377km
偏心率: 0.0001229
轨道倾角: 53.161°
近地点辐角 48.349°
升交点赤经 308.614°
平近点角 311.761°
近地点: 474.397km
远地点: 476.083km
周期: 94.106分钟
每日圈数: 15.301918
详细信息
固有亮度:
5
最大亮度:
0.3
卫星平台:
Starlink v2.0 mini
覆盖范围:
全球
运营商:
太空探索技术公司
运营商所在国:
美国
制造商(研发单位):
太空探索技术公司
制造商所在国:
美国
使用方式:
暂无
卫星简介
星链(Starlink)计划是由太空探索技术公司(SpaceX)提出的一个巨型低轨卫星互联网星座项目,计划在2019年至2024年间在太空搭建由约1.2万颗卫星组成的“星链”网络,其中1584颗将部署在地球上空550千米处的近地轨道,并从2020年开始工作。该卫星仍在工作。
2D轨道图
3D轨道图
轨道高度分析图
轨道倾角分析图
轨道综合分析图
查看轨道综合分析图